World > North America > United States > Iowa > Kellerton  

Kellerton, IA Hourly Weather Updates

Feedback E-mail the Weather

Quick WX

Kellerton, IA Weather Maps

°F °C°F °C
Kellerton Weather Map
UTC Time: 2/26/2024, 07:58
Your Time:

Kellerton, IA Regional Weather

Expires:202402260800;;713526
ASUS43 KDMX 260706
RWRIA 

WEATHER ROUNDUP FOR IOWA
NATIONAL WEATHER SERVICE DES MOINES IA
100 AM CST MON FEB 26 2024

NOTE: "FAIR" INDICATES FEW OR NO CLOUDS BELOW 12,000 FEET WITH NO
SIGNIFICANT WEATHER AND/OR OBSTRUCTIONS TO VISIBILITY.

* - THESE STATIONS ARE NOT NWS STATIONS...THUS NOT UNDER NWS
QUALITY CONTROL.  THEY ALSO DO NOT REPORT WEATHER SUCH 
AS PRECIPITATION OR FOG.  


IAZ055>058-069>071-079>083-090>094-260800-
   SOUTHWEST IOWA
  
CITY           SKY/WX    TMP DP  RH WIND       PRES   REMARKS
ATLANTIC *     CLEAR     39  28  65 NE3       29.79F TC   4           
AUDUBON *        N/A     34  27  75 CALM      29.80S TC   1           
CLARINDA *     CLEAR     32  25  74 NE5       29.82F WCI  27 TC   0   
COUNCIL BLFS * CLEAR     45  30  57 SE13      29.76F TC   7           
CRESTON *      CLEAR     36  27  69 E9        29.81F WCI  29 TC   2   
HARLAN  *      CLEAR     41  28  60 VRB5      29.79F TC   5           
LAMONI         CLEAR     46  27  47 NE6       29.81F TC   8           
RED OAK *      CLEAR     39  27  60 CALM      29.80F TC   4           
SHENANDOAH *   CLEAR     32  25  74 NE8       29.78F WCI  25 TC   0   
$$
 

SKY/WX - Weather  TMP - Temperature  DP - Dew Point  RH - Humidity
WIND - Wind Direction/Speed PRES - Barometric Pressure VSB - Visibility
WCI - Wind Chill Index E13G22 Wind - East Wind 13 mph/Gusts of 22 mph

Trending Headlines

Trending Entertainment Headlines

Kellerton Radar Loop

Use the map search tool if you want to place a location marker on the radar map...

Kellerton Quick Facts

National Two Day Weather Forecast


E-mail the Kellerton Weather Forecast

Voice your opinion or tell us about page issues...